Temp
36 37 37 36 36 37 38 40 43 48 61 62 62 63 62 64 65 66 65 66 66 66 65 66 66 66 66 65 60 61 61 58 58 54 52 53 53 54 56 60 64 62 62
34 34 35 34 34 34 35 36 39 41 44 58 62 62 63 64 65 64 63 64 64 63 64 64 64 65 65 64 59 57 56 54 58 55 56 53 56 53 54 58 60 60 62
30 31 32 32 32 31 32 34 36 37 39 43 56 59 60 60 59 60 61 60 62 61 61 62 63 63 64 63 62 57 57 55 54 55 60 53 54 58 58 57 59 58 60
30 30 30 30 30 30 32 33 34 34 37 39 41 49 57 58 61 61 62 61 60 60 60 60 61 62 62 63 63 63 58 59 57 55 55 58 60 55 52 56 56 57 58
29 28 28 29 30 30 30 32 33 33 33 35 36 37 42 55 58 59 58 59 59 59 59 58 59 59 60 61 62 60 59 60 61 59 58 57 57 58 57 55 53 55 57
30 30 30 29 29 30 29 30 30 30 32 32 33 33 33 38 48 52 55 57 58 58 57 56 57 58 59 59 60 60 59 59 61 61 59 58 57 57 58 58 57 56 56
30 29 29 29 29 28 28 29 28 28 30 30 31 30 31 33 34 37 43 47 52 55 56 55 55 56 57 57 58 58 57 56 56 59 59 60 60 60 60 59 57 56 56
28 28 28 29 29 30 30 28 27 26 28 29 29 30 30 31 31 32 33 37 41 44 52 54 55 55 56 56 56 56 57 58 55 55 58 59 59 59 59 58 56 52 53
26 26 27 28 28 28 28 29 29 28 27 27 27 27 28 28 28 30 31 31 34 38 41 47 52 54 54 54 55 55 55 56 56 55 54 55 58 58 58 58 58 55 51
25 26 26 26 27 28 28 29 29 28 29 28 27 26 25 26 27 28 27 28 30 32 34 37 42 48 52 53 53 53 54 54 55 55 54 53 52 54 55 55 56 56 54
23 24 25 26 27 27 27 27 27 27 27 28 28 27 26 25 25 25 26 26 27 29 30 32 35 39 43 49 51 52 53 51 53 53 52 53 54 52 52 53 53 53 53
22 23 23 24 24 24 24 24 24 24 25 26 27 27 27 27 25 24 25 25 25 27 27 29 30 32 36 38 43 48 49 49 49 51 50 50 52 50 53 52 50 51 53
19 19 19 18 18 19 19 19 20 21 22 23 24 24 24 24 24 24 24 25 25 26 26 27 28 29 31 34 36 37 42 46 48 49 48 49 49 47 49 49 49 49 50
14 15 15 15 15 15 15 16 17 18 19 20 20 20 21 22 22 23 23 22 23 23 24 25 26 27 28 31 33 34 35 36 40 44 45 47 46 47 47 46 47 48 46
12 12 12 13 13 13 14 14 15 16 17 17 17 19 20 21 21 21 22 22 22 22 23 23 24 26 27 29 32 32 32 32 33 33 36 38 40 41 44 45 44 44 44
10 11 11 11 11 11 12 13 14 14 16 15 15 18 18 18 19 20 20 21 21 21 22 22 22 23 24 29 33 34 31 31 32 32 32 33 34 36 39 41 40 41 39
9 9 10 10 10 11 12 11 12 14 14 14 15 17 16 16 18 19 19 19 19 20 20 21 22 22 22 28 31 32 30 29 30 30 32 32 34 35 33 36 38 39 39
8 8 9 9 10 11 10 11 11 12 13 13 14 15 15 15 17 17 18 18 20 20 20 20 22 22 24 27 28 30 28 28 29 29 30 30 32 33 33 33 32 33 33
8 8 9 10 10 9 10 10 10 12 11 12 14 15 15 15 16 16 16 18 19 20 21 22 22 21 21 26 28 27 27 27 28 29 30 29 30 32 35 32 32 32 33
9 9 10 11 10 11 12 11 11 12 12 13 14 16 16 16 15 16 17 18 19 19 21 21 22 23 21 24 26 28 28 28 29 30 29 30 31 33 33 32 32 31 32
10 12 11 9 11 13 13 11 12 12 14 15 15 15 16 15 16 17 18 18 18 19 19 18 20 21 22 23 26 28 27 28 29 29 29 31 32 32 33 34 32 32 34
9 11 10 11 13 14 12 11 11 14 14 14 13 13 14 14 15 15 16 17 17 16 16 16 17 20 22 24 25 26 28 29 28 28 30 32 33 33 34 33 33 34 34
9 11 10 10 12 13 12 10 11 13 12 12 11 12 13 13 14 13 14 14 14 14 13 14 15 17 21 23 24 25 26 27 27 29 30 31 32 31 32 34 35 35 33
9 10 9 9 10 12 12 11 12 12 11 9 10 10 10 11 13 13 13 12 12 12 12 12 14 16 18 21 23 24 25 25 26 27 28 29 30 31 32 31 31 33 33
9 9 9 9 9 11 10 11 11 11 9 9 8 9 10 10 10 11 11 11 13 14 12 14 16 15 16 20 24 24 24 25 27 27 26 25 26 25 27 28 29 30 30
10 9 9 8 9 9 9 10 11 10 8 7 8 8 8 8 10 10 9 15 16 17 18 19 18 18 21 23 23 24 26 26 27 24 23 23 24 24 25 25 26 28 29
MSLP
1028.39 1028.04 1027.58 1027.05 1026.20 1025.15 1024.14 1023.26 1022.00 1020.77 1019.06 1018.55 1018.29 1018.08 1017.98 1018.22 1018.40 1018.52 1018.80 1018.87 1018.96 1019.14 1019.26 1019.30 1019.51 1019.71 1019.68 1019.88 1020.51 1020.74 1021.08 1021.71 1022.26 1022.51 1023.24 1023.39 1023.41 1023.30 1023.03 1022.75 1022.66 1022.75 1022.76
1028.90 1028.79 1028.37 1027.89 1027.33 1026.80 1025.85 1024.71 1023.69 1022.60 1021.34 1019.53 1018.75 1018.57 1018.33 1018.32 1018.30 1018.61 1018.87 1019.04 1019.14 1019.30 1019.33 1019.36 1019.43 1019.60 1019.69 1019.85 1020.51 1020.83 1021.25 1021.83 1022.01 1022.08 1022.39 1022.59 1022.84 1022.89 1022.99 1022.89 1022.91 1022.88 1022.89
1030.23 1029.97 1029.54 1029.22 1028.67 1027.92 1027.22 1026.42 1025.40 1024.34 1023.22 1021.88 1019.97 1019.27 1019.01 1018.97 1018.82 1018.85 1018.86 1019.07 1019.25 1019.40 1019.48 1019.48 1019.48 1019.53 1019.58 1019.69 1020.04 1020.56 1020.72 1021.17 1021.94 1021.97 1021.51 1021.88 1021.28 1021.50 1022.31 1022.63 1022.77 1022.81 1022.72
1031.29 1031.12 1030.74 1030.26 1029.95 1029.43 1028.71 1027.72 1026.69 1025.70 1024.65 1023.75 1022.30 1020.67 1019.60 1018.96 1018.69 1018.74 1018.86 1018.99 1019.27 1019.37 1019.55 1019.59 1019.59 1019.55 1019.63 1019.65 1019.75 1019.96 1020.33 1020.36 1020.79 1021.80 1021.85 1021.75 1021.40 1021.09 1021.50 1022.17 1022.48 1022.68 1022.69
1032.17 1032.08 1031.95 1031.65 1031.26 1030.56 1029.75 1028.97 1028.00 1026.97 1026.07 1025.15 1024.31 1023.42 1022.10 1020.38 1019.89 1019.56 1019.31 1019.13 1019.21 1019.48 1019.59 1019.72 1019.68 1019.64 1019.66 1019.63 1019.67 1019.90 1020.08 1020.12 1020.08 1020.60 1021.06 1021.53 1021.60 1021.39 1020.82 1020.82 1021.68 1022.35 1022.45
1032.77 1032.89 1032.88 1032.57 1032.01 1031.41 1030.64 1029.81 1029.00 1028.29 1027.46 1026.53 1025.71 1025.00 1024.34 1023.25 1021.52 1020.79 1020.12 1019.74 1019.66 1019.49 1019.62 1019.78 1019.76 1019.75 1019.72 1019.71 1019.68 1019.79 1019.94 1020.00 1019.90 1020.04 1020.47 1020.64 1020.60 1020.47 1020.45 1020.32 1020.70 1021.07 1021.67
1033.29 1033.18 1032.86 1032.49 1032.17 1031.79 1031.36 1030.82 1030.19 1029.41 1028.72 1027.90 1027.10 1026.43 1025.72 1025.00 1024.32 1023.59 1022.49 1021.58 1020.68 1020.11 1019.84 1019.90 1019.80 1019.71 1019.72 1019.73 1019.75 1019.77 1019.90 1020.00 1019.96 1019.93 1020.05 1020.29 1020.16 1020.31 1020.13 1020.15 1020.46 1020.65 1021.42
1034.07 1034.03 1033.89 1033.48 1033.16 1032.72 1032.21 1031.76 1031.21 1030.57 1029.97 1029.21 1028.48 1027.86 1027.13 1026.38 1025.83 1025.30 1024.56 1023.74 1022.85 1022.10 1020.83 1020.22 1019.85 1019.74 1019.76 1019.74 1019.70 1019.65 1019.63 1019.64 1019.85 1019.89 1019.89 1019.94 1020.12 1020.34 1020.14 1020.09 1020.33 1020.63 1020.88
1034.83 1034.74 1034.55 1034.31 1034.00 1033.60 1033.14 1032.61 1031.98 1031.42 1030.99 1030.40 1029.72 1029.00 1028.32 1027.66 1026.97 1026.38 1025.83 1025.20 1024.54 1023.55 1022.43 1021.26 1020.14 1019.66 1019.58 1019.62 1019.55 1019.46 1019.32 1019.35 1019.37 1019.49 1019.72 1019.73 1019.72 1020.00 1020.12 1020.24 1020.23 1020.17 1020.09
1035.52 1035.47 1035.26 1034.98 1034.70 1034.37 1033.97 1033.50 1032.89 1032.25 1031.68 1031.14 1030.56 1030.10 1029.55 1028.91 1028.21 1027.39 1026.77 1026.13 1025.51 1024.73 1023.78 1022.56 1021.46 1020.25 1019.57 1019.37 1019.38 1019.30 1019.13 1018.98 1018.91 1018.96 1019.13 1019.42 1019.61 1019.65 1019.84 1020.01 1020.10 1020.09 1020.03
1036.16 1036.14 1035.96 1035.77 1035.49 1035.07 1034.62 1034.14 1033.62 1033.01 1032.40 1031.79 1031.20 1030.60 1030.17 1029.71 1029.16 1028.38 1027.77 1027.13 1026.36 1025.64 1024.80 1023.80 1022.59 1021.45 1020.40 1019.61 1019.38 1019.09 1018.92 1018.86 1018.66 1018.66 1018.70 1018.69 1018.95 1019.19 1019.40 1019.61 1019.73 1019.76 1019.92
1037.12 1037.02 1036.78 1036.53 1036.24 1035.92 1035.52 1035.05 1034.54 1033.96 1033.38 1032.69 1031.97 1031.26 1030.69 1030.10 1029.64 1029.16 1028.51 1027.81 1027.11 1026.40 1025.66 1024.68 1023.65 1022.55 1021.51 1020.69 1019.92 1019.39 1019.01 1018.64 1018.43 1018.40 1018.50 1018.41 1018.55 1018.77 1018.84 1019.03 1019.19 1019.23 1019.38
1038.27 1038.15 1037.82 1037.52 1037.25 1036.83 1036.40 1035.97 1035.44 1034.84 1034.15 1033.41 1032.65 1032.01 1031.39 1030.83 1030.34 1029.83 1029.29 1028.52 1027.80 1027.03 1026.29 1025.43 1024.45 1023.55 1022.63 1021.60 1020.92 1020.40 1019.68 1018.92 1018.46 1018.30 1018.31 1018.28 1018.31 1018.43 1018.49 1018.71 1018.78 1018.98 1019.13
1039.16 1038.99 1038.69 1038.39 1038.10 1037.65 1037.19 1036.66 1036.05 1035.47 1034.72 1034.02 1033.31 1032.69 1032.11 1031.52 1030.93 1030.27 1029.84 1029.26 1028.50 1027.74 1026.95 1026.20 1025.36 1024.40 1023.50 1022.50 1021.53 1020.95 1020.51 1020.01 1019.30 1018.85 1018.63 1018.45 1018.42 1018.34 1018.41 1018.56 1018.59 1018.76 1019.04
1039.71 1039.57 1039.34 1038.98 1038.61 1038.13 1037.59 1037.03 1036.43 1035.82 1035.13 1034.39 1033.70 1033.05 1032.53 1031.93 1031.33 1030.59 1029.95 1029.37 1028.79 1028.27 1027.58 1026.72 1025.87 1024.95 1024.19 1023.20 1022.16 1021.49 1021.02 1020.40 1019.84 1019.46 1019.32 1019.28 1019.10 1018.96 1018.74 1018.63 1018.59 1018.64 1018.82
1040.34 1040.15 1039.89 1039.51 1039.04 1038.58 1038.00 1037.43 1036.76 1036.09 1035.37 1034.58 1033.90 1033.23 1032.72 1032.08 1031.41 1030.76 1030.03 1029.47 1028.94 1028.40 1027.78 1027.08 1026.17 1025.34 1024.64 1023.74 1022.65 1021.81 1021.59 1021.12 1020.18 1019.65 1019.41 1019.35 1019.26 1019.21 1019.15 1019.18 1019.13 1019.13 1018.99
1040.67 1040.31 1040.05 1039.68 1039.23 1038.71 1038.20 1037.57 1036.90 1036.24 1035.52 1034.80 1034.08 1033.35 1032.82 1032.12 1031.45 1030.84 1030.14 1029.54 1028.98 1028.30 1027.78 1027.17 1026.40 1025.68 1025.09 1023.92 1023.18 1022.47 1021.81 1021.71 1020.73 1020.26 1019.71 1019.42 1019.24 1019.14 1019.08 1019.06 1019.01 1018.94 1019.05
1040.62 1040.28 1039.92 1039.50 1039.09 1038.68 1038.23 1037.62 1036.94 1036.20 1035.47 1034.79 1034.06 1033.50 1032.95 1032.21 1031.51 1030.87 1030.23 1029.59 1028.85 1028.15 1027.56 1026.95 1026.21 1025.80 1025.23 1024.16 1023.30 1023.00 1022.51 1021.96 1020.85 1020.65 1020.21 1019.95 1019.48 1019.18 1019.00 1018.87 1018.85 1018.84 1018.82
1040.84 1040.43 1039.94 1039.36 1038.79 1038.39 1037.87 1037.33 1036.65 1035.94 1035.36 1034.67 1034.01 1033.51 1032.90 1032.20 1031.56 1030.89 1030.25 1029.50 1028.67 1027.96 1027.32 1026.62 1026.00 1025.66 1025.03 1024.15 1023.49 1023.19 1022.52 1021.69 1020.93 1020.69 1020.31 1019.95 1019.71 1019.41 1019.06 1018.75 1018.47 1018.36 1018.40
1040.47 1039.96 1039.41 1038.90 1038.46 1037.92 1037.44 1036.84 1036.25 1035.61 1034.99 1034.45 1033.99 1033.45 1032.86 1032.22 1031.52 1030.90 1030.12 1029.42 1028.73 1027.89 1027.15 1026.38 1025.99 1025.42 1024.84 1024.26 1023.61 1022.90 1021.80 1021.33 1020.74 1020.19 1020.29 1019.69 1019.31 1019.07 1018.96 1018.66 1018.45 1018.11 1017.94
1040.01 1039.54 1039.10 1038.64 1038.08 1037.61 1037.13 1036.59 1035.98 1035.36 1034.92 1034.49 1033.96 1033.39 1032.80 1032.14 1031.44 1030.69 1029.96 1029.26 1028.52 1027.71 1027.05 1026.46 1025.77 1025.13 1024.52 1023.75 1023.16 1022.43 1021.87 1020.80 1020.44 1019.84 1019.43 1019.21 1018.97 1018.68 1018.58 1018.27 1018.30 1018.14 1018.08
1039.60 1039.24 1038.69 1038.15 1037.73 1037.29 1036.87 1036.27 1035.68 1035.22 1034.85 1034.31 1033.75 1033.19 1032.62 1032.02 1031.28 1030.53 1029.76 1028.98 1028.22 1027.56 1026.89 1026.17 1025.43 1024.67 1023.95 1023.43 1022.71 1022.01 1021.34 1020.88 1020.13 1019.66 1019.13 1018.58 1018.32 1018.32 1018.14 1018.01 1017.98 1017.93 1017.82
1039.37 1038.91 1038.40 1037.84 1037.31 1036.96 1036.59 1035.92 1035.39 1035.07 1034.53 1034.04 1033.43 1032.88 1032.32 1031.73 1031.07 1030.25 1029.37 1028.84 1028.16 1027.41 1026.70 1025.98 1025.16 1024.33 1023.60 1022.96 1022.36 1021.77 1021.16 1020.57 1019.98 1019.51 1018.89 1018.42 1018.00 1017.85 1017.57 1017.24 1017.22 1017.29 1017.38
1039.01 1038.57 1038.06 1037.37 1036.82 1036.48 1036.15 1035.71 1035.20 1034.77 1034.25 1033.68 1033.11 1032.61 1031.99 1031.26 1030.53 1030.17 1029.38 1028.66 1027.96 1027.27 1026.57 1025.75 1024.78 1023.91 1023.12 1022.41 1021.83 1021.26 1020.66 1020.19 1019.66 1019.11 1018.55 1018.16 1017.83 1017.65 1017.36 1017.23 1017.15 1016.71 1016.75
1038.72 1038.30 1037.63 1037.10 1036.51 1036.12 1035.66 1035.29 1034.82 1034.36 1033.83 1033.27 1032.72 1032.13 1031.49 1030.91 1030.17 1029.63 1029.03 1028.37 1027.68 1027.00 1025.93 1024.96 1024.15 1023.24 1022.40 1021.81 1021.24 1020.61 1019.98 1019.37 1018.77 1018.44 1017.98 1017.68 1017.34 1017.10 1016.83 1016.60 1016.74 1016.57 1016.40
1038.11 1037.72 1037.25 1036.69 1036.06 1035.60 1035.07 1034.65 1034.29 1033.91 1033.44 1032.78 1032.16 1031.62 1031.03 1030.44 1029.54 1028.83 1028.25 1027.71 1026.87 1025.97 1025.02 1024.14 1023.41 1022.83 1022.01 1021.15 1020.47 1019.76 1019.07 1018.50 1018.06 1017.46 1017.00 1016.64 1016.38 1016.35 1016.31 1016.31 1016.23 1016.07 1016.07
Wind_Speed
18 21 21 22 23 23 22 22 22 25 8 5 5 6 6 5 5 4 5 5 5 5 5 4 5 5 6 8 7 4 7 5 5 6 3 1 1 0 1 1 1 1 2
21 22 23 23 22 21 22 22 22 20 18 10 5 5 4 4 4 4 5 6 6 6 5 6 5 7 6 9 8 7 5 1 6 3 2 3 5 3 2 2 3 2 1
20 21 23 23 21 22 21 20 20 20 18 20 9 4 2 2 3 4 5 5 6 6 6 7 6 6 7 7 10 8 8 5 5 5 5 4 6 5 5 6 5 4 3
18 19 21 22 23 21 18 20 20 20 18 21 16 17 7 7 3 4 4 4 5 6 6 6 6 7 6 8 9 9 7 6 9 4 4 3 4 4 4 5 6 5 5
18 19 20 20 20 20 18 17 18 20 20 19 18 14 16 9 5 4 5 5 4 5 5 6 6 7 6 8 9 10 10 8 8 9 9 8 5 5 4 4 6 6 6
17 16 17 17 18 18 18 18 20 20 20 19 19 19 18 17 13 11 7 4 3 3 5 5 6 6 7 8 8 10 11 10 10 9 9 9 6 7 5 3 4 6 7
16 18 19 19 19 21 21 18 20 20 20 20 19 19 18 16 16 15 11 12 8 5 4 5 6 6 7 8 8 9 11 9 8 11 10 9 9 4 5 3 2 3 4
15 16 17 17 18 19 19 19 20 19 19 18 18 16 17 11 11 13 12 11 10 10 11 8 6 7 7 7 8 8 9 11 9 11 12 10 9 7 5 5 4 3 5
14 16 16 16 16 17 18 19 19 18 19 18 15 16 15 15 14 15 13 11 13 13 14 13 10 8 8 9 9 8 10 10 11 11 10 9 9 8 7 6 6 7 8
14 14 14 16 15 16 15 17 17 17 17 17 14 13 14 14 13 12 14 15 14 16 15 15 12 11 9 9 9 9 10 11 10 9 13 11 7 8 8 8 8 8 9
14 13 13 14 14 15 16 16 16 17 17 16 16 15 13 13 13 12 13 13 14 14 15 15 15 12 10 9 10 11 11 11 12 11 12 13 13 9 9 8 8 9 9
13 14 14 15 15 15 15 16 16 16 15 15 15 15 15 15 14 14 14 14 14 13 13 14 14 14 11 11 9 11 10 11 12 11 11 12 8 11 10 9 11 10 10
12 13 13 13 14 14 14 14 14 15 15 15 14 14 14 14 15 15 15 15 15 15 15 14 13 14 13 10 8 9 9 10 10 10 10 11 11 10 9 10 9 9 8
11 12 12 12 12 12 12 12 13 13 14 13 13 12 13 14 13 13 13 13 13 14 14 14 13 12 13 12 9 7 7 7 6 6 7 8 9 10 10 9 10 9 8
13 13 13 13 12 12 12 11 11 11 12 11 11 10 11 12 11 12 12 12 11 11 12 12 13 12 11 9 14 8 8 5 4 4 4 4 5 5 5 6 8 9 9
13 13 13 13 13 13 12 13 12 12 12 11 11 10 11 12 11 12 11 12 12 11 11 11 11 11 9 21 22 15 9 10 7 4 4 4 6 6 9 10 6 6 6
14 13 13 12 12 12 13 12 13 13 12 11 11 11 12 13 12 13 13 12 12 12 11 12 11 10 11 19 21 21 8 9 8 8 6 4 4 7 5 9 12 13 16
16 14 12 12 12 12 11 11 11 12 12 12 12 12 13 14 14 14 14 14 12 12 11 11 11 10 10 17 18 21 10 9 8 7 7 7 6 5 5 5 6 6 5
12 11 11 12 11 10 10 11 12 12 11 12 12 14 14 14 14 15 15 14 13 13 12 12 11 12 12 19 19 15 10 9 9 8 8 6 7 9 11 6 8 7 6
12 12 13 12 12 12 12 13 13 13 12 13 14 14 14 14 15 15 14 13 13 14 12 12 12 15 14 18 19 16 9 10 9 8 9 12 11 12 12 8 6 7 7
14 14 13 12 12 12 13 14 13 13 14 14 14 14 15 15 15 14 13 14 14 13 13 14 13 14 14 14 19 19 11 9 9 8 7 7 12 13 15 14 6 6 4
15 14 12 12 13 13 13 13 14 14 14 14 15 15 14 12 12 16 14 14 13 14 13 13 12 10 12 16 16 17 17 17 11 10 8 9 13 15 16 14 15 15 11
14 13 13 14 13 13 12 15 15 15 15 15 15 15 15 14 13 14 14 13 12 11 11 11 11 11 9 10 17 19 19 18 12 10 12 18 16 14 14 20 20 16 8
13 13 14 14 16 13 13 14 15 14 15 15 15 13 13 14 13 11 11 11 11 11 11 11 12 11 11 11 10 9 10 14 12 13 11 13 15 18 16 10 7 8 8
12 13 14 14 15 15 15 14 14 14 14 14 14 14 11 13 12 11 11 11 12 13 12 12 12 12 11 11 17 16 11 11 12 13 10 10 10 9 9 9 9 7 7
14 14 14 15 16 16 16 15 14 14 14 14 12 11 11 11 11 11 11 16 21 24 25 25 20 12 23 27 27 26 26 25 24 12 10 9 8 9 9 9 8 8 10
Wind_Direction
17 18 17 13 9 11 8 7 5 355 330 278 247 238 231 220 218 220 216 218 214 210 214 214 202 206 209 200 181 169 155 136 146 122 108 111 132 144 45 353 330 6 37
19 16 14 14 14 9 7 7 8 2 1 332 292 286 246 239 234 215 213 214 214 209 222 220 215 209 213 208 178 168 160 133 180 147 165 220 207 196 203 223 236 235 223
16 14 14 15 10 10 6 6 7 7 7 359 330 274 265 233 221 219 221 217 218 215 221 223 225 219 221 212 198 194 186 172 186 229 211 200 234 170 180 210 220 218 209
19 17 13 13 12 8 4 7 10 10 10 9 8 350 312 297 312 287 240 223 219 221 222 231 227 226 223 227 217 208 204 216 190 187 239 270 319 222 179 210 211 214 214
20 16 12 10 10 9 7 7 9 13 12 14 17 12 4 341 335 325 295 243 230 242 238 238 232 231 228 233 227 217 215 218 218 209 192 223 235 246 268 180 189 212 211
19 18 16 11 10 10 9 8 9 12 11 14 16 18 12 1 2 357 341 326 290 256 246 250 248 247 244 239 232 229 223 222 224 212 199 211 207 206 210 206 183 208 191
16 13 11 11 11 12 11 8 9 11 9 11 14 15 13 12 9 3 353 347 338 318 287 266 251 246 243 241 238 234 230 226 224 221 215 224 231 233 220 242 156 186 163
15 15 13 10 10 10 11 10 10 9 7 9 10 10 13 13 12 5 360 355 353 339 327 299 268 256 253 246 238 236 232 228 223 231 226 225 229 224 213 226 211 208 210
14 10 9 10 8 9 9 8 8 10 11 6 5 8 9 10 9 8 5 359 353 347 341 327 301 271 250 244 241 237 234 228 230 227 228 231 230 226 228 223 227 240 246
13 10 8 5 6 7 5 6 8 8 7 8 10 8 4 5 3 6 5 2 355 352 348 345 335 308 275 252 241 242 240 235 230 227 227 220 226 228 228 225 232 236 244
3 4 4 4 3 3 3 3 4 4 4 6 1 7 6 3 1 2 1 358 354 353 351 348 342 341 318 285 257 244 242 237 238 225 229 229 222 221 221 221 227 229 230
359 357 357 358 360 360 360 359 358 358 357 354 358 2 3 3 4 1 357 355 353 351 349 348 348 345 344 340 303 270 246 239 237 236 230 232 225 225 226 222 221 223 223
358 354 353 354 352 352 352 352 352 352 349 351 349 353 358 358 358 357 354 354 352 350 350 349 349 346 341 344 342 337 303 267 252 242 234 232 225 223 219 219 222 219 223
353 350 349 347 344 344 342 342 341 343 344 343 342 346 349 348 345 344 345 345 347 346 346 345 341 345 338 340 338 329 318 327 322 295 264 244 232 231 222 219 218 212 212
349 345 340 339 338 337 335 336 335 336 336 336 335 338 339 339 335 337 336 337 336 336 334 337 338 342 339 339 344 355 328 302 293 287 291 305 315 321 272 236 218 213 212
340 335 333 332 332 331 332 330 330 331 333 331 329 330 335 332 330 331 330 331 328 329 326 328 330 331 336 330 340 353 346 338 319 288 269 250 256 264 259 245 244 226 209
334 331 327 326 324 325 327 325 325 324 327 325 323 329 332 328 330 328 327 326 323 322 323 321 321 321 324 327 332 336 348 327 337 339 323 276 249 246 235 255 262 239 227
327 325 322 318 320 320 312 315 319 320 322 323 324 329 329 325 327 326 325 322 318 317 315 313 310 316 310 318 325 326 327 310 319 318 324 321 305 262 243 235 241 244 245
311 307 307 309 311 309 312 317 319 322 323 324 325 326 323 321 322 320 320 315 316 314 309 307 312 307 309 314 314 311 305 301 296 302 293 288 294 293 287 255 237 237 234
315 315 314 314 315 320 323 322 320 322 322 325 323 320 319 318 317 314 311 311 310 305 306 309 304 302 303 302 301 304 296 287 286 281 278 278 274 271 272 274 275 243 232
315 313 322 310 313 318 319 317 317 317 322 319 316 316 316 315 312 311 311 308 305 301 304 303 301 299 294 295 299 298 290 287 288 279 270 267 267 270 274 275 270 246 242
318 318 314 313 315 317 316 312 311 318 317 314 313 311 311 309 308 310 309 305 305 305 300 301 299 295 298 295 294 297 293 289 284 281 286 272 267 271 267 263 263 267 258
314 315 313 312 311 313 310 309 313 315 313 312 310 309 309 307 304 299 305 307 303 303 303 301 300 297 295 294 296 295 294 289 284 281 277 273 277 286 280 262 260 260 251
312 312 312 306 309 309 309 304 308 309 310 307 308 308 306 303 309 304 295 298 296 299 300 297 294 294 294 292 291 289 290 287 282 277 272 271 270 267 265 275 277 254 247
306 302 304 303 303 306 304 304 303 306 303 302 303 303 302 303 304 301 298 292 287 285 280 276 280 286 288 285 284 281 275 271 263 260 251 247 248 247 252 249 248 250 255
298 307 302 301 301 302 299 300 301 299 298 298 299 301 302 300 294 305 299 294 298 299 296 296 295 293 295 296 294 291 289 286 286 281 275 269 247 243 246 249 250 248 240